Printer-friendly version

IAU Minor Planet Center

Minor Planet Center

MPEC 2008-C90 : 2008 CS116

The following Minor Planet Electronic Circular may be linked-to from your own Web pages, but must not otherwise be redistributed electronically.


Read MPEC 2008-C89 Read MPEC 2008-C91


M.P.E.C. 2008-C90                                Issued 2008 Feb. 13, 16:22 UT

     The Minor Planet Electronic Circulars contain information on unusual
         minor planets and routine data on comets.  They are published
   on behalf of Commission 20 of the International Astronomical Union by the
          Minor Planet Center, Smithsonian Astrophysical Observatory,
                          Cambridge, MA 02138, U.S.A.

             Prepared using the Tamkin Foundation Computer Network

                              MPC@CFA.HARVARD.EDU
          URL http://www.cfa.harvard.edu/iau/mpc.html  ISSN 1523-6714

                                  2008 CS116

Observations:
     K08CB6S  C2007 11 12.95356 01 46 07.06 +39 21 41.9          19.1 R EC090106
     K08CB6S  C2007 11 12.95722 01 46 06.41 +39 21 47.7          19.1 R EC090106
     K08CB6S  C2007 11 12.96087 01 46 05.98 +39 21 53.6          18.6 R EC090106
     K08CB6S  C2007 11 12.96453 01 46 05.38 +39 21 58.1          19.6 R EC090106
     K08CB6S  C2007 11 15.18310 01 40 44.83 +40 21 59.2          19.6 V EC090G96
     K08CB6S  C2007 11 15.18694 01 40 44.22 +40 22 05.5          19.6 V EC090G96
     K08CB6S  C2007 11 15.19086 01 40 43.57 +40 22 12.2          19.6 V EC090G96
     K08CB6S  C2007 11 15.19474 01 40 42.99 +40 22 17.9          19.1 V EC090G96
     K08CB6S* C2008 02 11.43331 13 43 08.36 +17 41 34.0          18.5 V EC090703
     K08CB6S  C2008 02 11.44186 13 43 06.60 +17 40 50.6          18.5 V EC090703
     K08CB6S  C2008 02 11.45039 13 43 04.87 +17 40 07.6          18.5 V EC090703
     K08CB6S  C2008 02 11.45887 13 43 03.07 +17 39 25.4          18.5 V EC090703
     K08CB6S  C2008 02 11.48698 13 42 57.24 +17 37 03.1          18.6 V EC090703
     K08CB6S  C2008 02 11.48752 13 42 57.09 +17 37 01.4          18.6 V EC090703
     K08CB6S  C2008 02 11.48806 13 42 57.06 +17 36 59.2          18.4 V EC090703
     K08CB6S  C2008 02 11.48858 13 42 56.88 +17 36 54.6          18.6 V EC090703
     K08CB6S  C2008 02 11.53159 13 42 47.94 +17 33 15.9          17.9 V EC090703
     K08CB6S  C2008 02 11.53212 13 42 47.81 +17 33 13.1                 EC090703
     K08CB6S  C2008 02 11.96384 13 41 32.66 +16 56 53.9          18.4 R EC090B04
     K08CB6S  C2008 02 11.96884 13 41 31.69 +16 56 29.5          18.4 R EC090B04
     K08CB6S  C2008 02 11.96943 13 41 31.59 +16 56 26.3          18.3 R EC090B04
     K08CB6S  C2008 02 11.97576 13 41 30.33 +16 55 56.1          18.4 R EC090B04
     K08CB6S  C2008 02 11.97960 13 41 29.59 +16 55 37.3          18.5 R EC090B04
     K08CB6S  C2008 02 12.03475 13 41 18.71 +16 51 06.2                 EC090246
     K08CB6S  C2008 02 12.03539 13 41 18.54 +16 51 02.4                 EC090246
     K08CB6S  C2008 02 12.03596 13 41 18.43 +16 51 00.1                 EC090246
     K08CB6S  C2008 02 12.03655 13 41 18.25 +16 50 57.0                 EC090246
     K08CB6S  C2008 02 12.03777 13 41 18.08 +16 50 50.4                 EC090246
     K08CB6S 5C2008 02 12.21118 13 40 44.22 +16 36 35.3          18.9 R EC090012
     K08CB6S 5C2008 02 12.21258 13 40 43.89 +16 36 27.7          19.2 R EC090012
     K08CB6S 5C2008 02 12.21374 13 40 43.71 +16 36 23.1          19.8 R EC090012
     K08CB6S 5C2008 02 12.21492 13 40 43.49 +16 36 16.3          19.1 R EC090012
     K08CB6S 5C2008 02 12.21722 13 40 43.00 +16 36 04.6          19.4 R EC090012
     K08CB6S 5C2008 02 12.21838 13 40 42.74 +16 35 59.8          19.1 R EC090012
     K08CB6S 5C2008 02 12.21954 13 40 42.57 +16 35 54.0          18.2 R EC090012
     K08CB6S 5C2008 02 12.22072 13 40 42.29 +16 35 47.9          19.4 R EC090012
     K08CB6S  C2008 02 12.34063 13 40 24.29 +16 26 13.0          19.4 R EC090854
     K08CB6S  C2008 02 12.34351 13 40 23.62 +16 26 00.4          19.4 R EC090854
     K08CB6S  C2008 02 12.34638 13 40 23.15 +16 25 44.5          19.4 R EC090854
     K08CB6S  C2008 02 12.44851 13 40 02.82 +16 17 31.5          18.4 V EC090G96
     K08CB6S  C2008 02 12.45548 13 40 01.45 +16 16 57.9          18.5 V EC090G96
     K08CB6S 5C2008 02 12.45798613 40 01.343+16 16 43.60         18.6 R EC090673
     K08CB6S  C2008 02 12.46237 13 40 00.04 +16 16 24.4          18.5 V EC090G96
     K08CB6S 5C2008 02 12.46261613 40 00.399+16 16 21.34                EC090673
     K08CB6S 5C2008 02 12.46747713 39 59.476+16 15 58.18                EC090673
     K08CB6S  C2008 02 12.46932 13 39 58.64 +16 15 50.6          18.4 V EC090G96
     K08CB6S 5C2008 02 12.47175913 39 58.597+16 15 36.96                EC090673
     K08CB6S  C2008 02 12.69132 13 39 18.74 +15 59 02.6          18.9 R EC090474
     K08CB6S  C2008 02 12.69248 13 39 18.41 +15 58 57.7          18.2 R EC090474
     K08CB6S  C2008 02 12.69363 13 39 18.26 +15 58 52.4          18.9 R EC090474
     K08CB6S  C2008 02 13.00303 13 38 24.93 +15 32 46.0          18.2 V EC090595
     K08CB6S  C2008 02 13.01093 13 38 23.44 +15 32 08.7          18.6 V EC090595
     K08CB6S  C2008 02 13.01884 13 38 21.92 +15 31 31.6          18.6 V EC090595
     K08CB6S  C2008 02 13.03768 13 38 18.46 +15 29 54.1                 EC090J71
     K08CB6S  C2008 02 13.04225 13 38 17.66 +15 29 32.9                 EC090J71
     K08CB6S  C2008 02 13.05188 13 38 15.91 +15 28 48.5          18.3 V EC090J66
     K08CB6S  C2008 02 13.05451 13 38 15.40 +15 28 36.1          18.3 V EC090J66
     K08CB6S  C2008 02 13.05947 13 38 14.46 +15 28 12.8          18.1 V EC090J66
     K08CB6S  C2008 02 13.06443 13 38 13.52 +15 27 49.5          18.3 V EC090J66
     K08CB6S  C2008 02 13.06706 13 38 13.03 +15 27 37.0          18.0 V EC090J66
     K08CB6S  C2008 02 13.15396 13 37 55.90 +15 20 52.8          18.0 R EC090204
     K08CB6S  C2008 02 13.15816 13 37 55.08 +15 20 33.1                 EC090204
     K08CB6S  C2008 02 13.16235 13 37 54.26 +15 20 13.1                 EC090204
     K08CB6S  C2008 02 13.36244 13 37 21.39 +15 04 39.2          18.5 V EC090G96
     K08CB6S  C2008 02 13.37286 13 37 19.41 +15 03 50.7          18.4 V EC090G96
     K08CB6S  C2008 02 13.38324 13 37 17.40 +15 03 02.5          18.4 V EC090G96
     K08CB6S  C2008 02 13.39380 13 37 15.31 +15 02 13.4          18.9 V EC090G96

Observer details:
012 Uccle.  Observer P. De Cat.  0.85-m f/2.5 Schmidt + 3Kx2K CCD.
106 Crni Vrh.  Observer S. Maticic.  0.60-m f/3.3 Deltagraph + CCD.
204 Schiaparelli Observatory.  Observer L. Buzzi.  0.60-m f/4.64 reflector
    + CCD.
246 Klet Observatory-KLENOT.  Observer M. Tichy.  1.06-m KLENOT Telescope
    + CCD.
474 Mount John Observatory, Lake Tekapo.  Observer A. C. Gilmore.  1.0-m f/7.7
    reflector + CCD.
595 Farra d'Isonzo.  Observers L. Bittesini, G. Lombardi, E. Pettarin,
    F. Piani.  Measurer E. Pettarin.  0.40-m f/4.5 reflector + CCD.
673 Table Mountain Observatory, Wrightwood.  Observer J. Young.  0.61-m f/16
    Cassegrain + CCD.
703 Catalina Sky Survey.  Observer R. E. Hill.  Measurers E. C. Beshore,
    A. Boattini, G. J. Garradd, A. R. Gibbs, A. D. Grauer, R. E. Hill,
    R. A. Kowalski, S. M. Larson, R. H. McNaught.  0.68-m Schmidt + CCD.
854 Sabino Canyon Observatory, Tucson.  Observer J. E. McGaha.  0.36-m f/10.0
    Schmidt-Cassegrain + CCD.
B04 Saint-Barthelemy Observatory.  Observer A. Carbognani.  0.81-m f/7.9
    reflector + CCD.
G96 Mt. Lemmon Survey.  Observers R. A. Kowalski, A. D. Grauer.  Measurers
    E. C. Beshore, A. Boattini, G. J. Garradd, A. R. Gibbs, A. D. Grauer,
    R. E. Hill, R. A. Kowalski, S. M. Larson, R. H. McNaught.  1.5-m reflector
    + CCD.
J66 Kinver.  Observer K. Hills.  0.41-m f/6.9 Ritchey-Chretien + CCD.
J71 Willow Bank Observatory.  Observer I. Griffin.  0.35-m Schmidt-Cassegrain
    + CCD.

Orbital elements:
2008 CS116                                               Earth MOID = 0.0949 AU
Epoch 2007 Oct. 27.0 TT = JDT 2454400.5                 MPC
M 343.10824              (2000.0)            P               Q
n   0.21283479     Peri.  120.69181     -0.40035602     -0.91619189
a   2.7782691      Node   352.84197     +0.78524459     -0.33314572
e   0.6407832      Incl.    8.08974     +0.47234096     -0.22272483
P   4.63           H   20.8           G   0.15           U   6
Residuals in seconds of arc
071112 106  0.3+  0.2+    080212 246  1.1+  1.0+    080212 673  0.9+  0.1+
071112 106  0.9-  0.2+    080212 246  0.5+  0.3+    080212 474  1.6+  0.7-
071112 106  0.5+  0.4+    080212 246  0.5+  0.8+    080212 474  0.1+  0.0
071112 106  0.1-  0.9-    080212 246  0.4-  0.6+    080212 474  1.2+  0.3+
071115 G96  0.1-  0.1+    080212 246  0.6+  0.0     080213 595  0.4+  0.2+
071115 G96  0.0   0.1+    080212 012  0.5+  0.2-    080213 595  0.6+  0.1+
071115 G96  0.2-  0.3+    080212 012  0.3-  0.8-    080213 595  0.5+  0.3+
071115 G96  0.4+  0.4-    080212 012  0.4+  0.3+    080213 J71  0.7-  0.4-
080211 703  0.5-  0.3+    080212 012  0.6+  0.7-    080213 J71  0.1+  0.1-
080211 703  0.4-  0.0     080212 012  0.0   1.1-    080213 J66  0.2+  0.0
080211 703  0.0   0.0     080212 012  0.4-  0.1-    080213 J66  0.0   0.1-
080211 703  0.7-  0.5+    080212 012  0.4+  0.2-    080213 J66  0.0   0.0
080211 703  0.9-  0.1+    080212 012  0.3-  0.5-    080213 J66  0.1-  0.1+
080211 703  1.4-  1.1+    080212 854  0.2+  0.3-    080213 J66  0.1+  0.0
080211 703  0.3-  1.7+    080212 854  1.3-  1.0+    080213 204  0.0   0.0
080211 703  1.3-  0.3-    080212 854  0.0   1.1-    080213 204  0.0   0.1+
080211 703  2.1-  1.2-    080212 G96  0.1-  0.4-    080213 204  0.0   0.0
080211 703  2.4-  1.3-    080212 G96  0.4+  0.2-    080213 G96  0.2-  0.1-
080211 B04  0.6+  0.2+    080212 673  0.5+  0.0     080213 G96  0.3+  0.2-
080211 B04  0.3+  0.2+    080212 G96  0.1+  0.2-    080213 G96  0.3+  0.2-
080211 B04  0.4+  0.1-    080212 673  0.3+  0.1+    080213 G96  0.2-  0.3-
080211 B04  0.4-  0.6+    080212 673  1.1+  0.5+
080211 B04  0.6-  0.6+    080212 G96  0.2+  0.3-

Ephemeris:
2008 CS116               a,e,i = 2.78, 0.64, 8                   q = 0.9980
Date    TT    R. A. (2000) Decl.     Delta      r     Elong.  Phase     V
2008 02 14    13 35.46   +14 15.8    0.153    1.082   124.8    48.6    18.7
2008 02 24    13 08.81   +03 56.9    0.189    1.139   139.2    34.6    18.9
2008 03 05    12 45.62   -02 28.0    0.236    1.207   153.1    21.8    19.1
2008 03 15    12 26.16   -06 12.1    0.294    1.282   165.9    10.9    19.4
2008 03 25    12 11.62   -08 14.2    0.366    1.361   173.5     4.8    19.7
2008 04 04    12 02.31   -09 17.3    0.452    1.444   166.9     9.1    20.5
2008 04 14    11 57.96   -09 51.4    0.554    1.529   157.3    14.7    21.3
2008 04 24    11 57.87   -10 15.3    0.671    1.615   148.2    19.1    21.9

Gareth V. Williams           (C) Copyright 2008 MPC           M.P.E.C. 2008-C90

Read MPEC 2008-C89 Read MPEC 2008-C91


Our Web policy. Index to the CBAT/MPC/ICQ pages.


Valid HTML 4.01!